| time (UTC) | temp C | wind direction | speed KPH | gust KPH | rain 1hr cm | rain 24hr cm | rain mn cm | humidity % | barometer mb |
| 20260903011528 | 29 | 218 | 8.0 | 14.5 | 0.00 | 0.00 | 0.00 | 78 | 1016.3 |
| 20260903011022 | 30 | 211 | 8.0 | 14.5 | 0.00 | 0.00 | 0.00 | 77 | 1016.2 |
| 20260903010747 | 30 | 216 | 8.0 | 14.5 | 0.00 | 0.00 | 0.00 | 77 | 1016.2 |
| 20260903010009 | 30 | 219 | 8.0 | 14.5 | 0.00 | 0.00 | 0.00 | 77 | 1016.1 |
| 20260903005505 | 30 | 217 | 8.0 | 12.9 | 0.00 | 0.00 | 0.00 | 77 | 1016.0 |
| 20260903004958 | 30 | 217 | 9.7 | 14.5 | 0.00 | 0.00 | 0.00 | 76 | 1016.0 |
| 20260903004452 | 30 | 208 | 8.0 | 14.5 | 0.00 | 0.00 | 0.00 | 76 | 1016.1 |
| 20260903004217 | 30 | 228 | 6.4 | 14.5 | 0.00 | 0.00 | 0.00 | 77 | 1015.9 |
| 20260903003440 | 30 | 213 | 6.4 | 11.3 | 0.00 | 0.00 | 0.00 | 77 | 1015.9 |
| 20260903002934 | 30 | 213 | 6.4 | 11.3 | 0.00 | 0.00 | 0.00 | 77 | 1015.9 |
| 20260903002428 | 30 | 221 | 6.4 | 12.9 | 0.00 | 0.00 | 0.00 | 76 | 1015.8 |
| 20260903001922 | 30 | 219 | 8.0 | 14.5 | 0.00 | 0.00 | 0.00 | 75 | 1015.8 |
| 20260903001420 | 30 | 221 | 8.0 | 14.5 | 0.00 | 0.00 | 0.00 | 75 | 1016.0 |
| 20260903000918 | 30 | 224 | 8.0 | 14.5 | 0.00 | 0.00 | 0.00 | 74 | 1015.9 |
| 20260903000418 | 31 | 226 | 9.7 | 14.5 | 0.00 | 0.00 | 0.00 | 73 | 1015.9 |
| 20260903000148 | 31 | 217 | 8.0 | 14.5 | 0.00 | 0.00 | 0.00 | 73 | 1015.9 |
| 20260902235416 | 31 | 228 | 9.7 | 14.5 | 0.00 | 0.00 | 0.00 | 72 | 1015.9 |
| 20260902234914 | 31 | 234 | 9.7 | 16.1 | 0.00 | 0.00 | 0.00 | 72 | 1016.0 |
| 20260902234414 | 31 | 225 | 9.7 | 19.3 | 0.00 | 0.00 | 0.00 | 71 | 1015.9 |
| 20260902233914 | 31 | 234 | 9.7 | 19.3 | 0.00 | 0.00 | 0.00 | 71 | 1015.9 |
| 20260902233414 | 31 | 233 | 11.3 | 19.3 | 0.00 | 0.00 | 0.00 | 70 | 1015.8 |
| 20260902232914 | 31 | 248 | 11.3 | 22.5 | 0.00 | 0.00 | 0.00 | 70 | 1015.9 |
| 20260902232414 | 31 | 234 | 11.3 | 22.5 | 0.00 | 0.00 | 0.00 | 70 | 1015.9 |
| 20260902231914 | 32 | 259 | 12.9 | 22.5 | 0.00 | 0.00 | 0.00 | 70 | 1015.9 |
| 20260902231413 | 32 | 232 | 12.9 | 22.5 | 0.00 | 0.00 | 0.00 | 69 | 1015.9 |
| 20260902230914 | 32 | 241 | 12.9 | 24.1 | 0.00 | 0.00 | 0.00 | 69 | 1015.9 |
| 20260902230416 | 32 | 241 | 12.9 | 24.1 | 0.00 | 0.00 | 0.00 | 69 | 1016.0 |
| 20260902225917 | 32 | 221 | 14.5 | 24.1 | 0.00 | 0.00 | 0.00 | 68 | 1016.0 |
| 20260902225414 | 32 | 229 | 12.9 | 25.7 | 0.00 | 0.00 | 0.00 | 68 | 1015.9 |
| 20260902224912 | 32 | 225 | 12.9 | 25.7 | 0.00 | 0.00 | 0.00 | 68 | 1016.0 |
| 20260902224413 | 32 | 214 | 17.7 | 29.0 | 0.00 | 0.00 | 0.00 | 67 | 1016.0 |
| 20260902224409 | 32 | 217 | 16.1 | 29.0 | 0.00 | 0.00 | 0.00 | 68 | 1015.9 |
| 20260902223410 | 32 | 228 | 16.1 | 27.4 | 0.00 | 0.00 | 0.00 | 67 | 1015.9 |
| 20260902222910 | 32 | 221 | 16.1 | 32.2 | 0.00 | 0.00 | 0.00 | 67 | 1015.9 |
| 20260902222410 | 32 | 238 | 12.9 | 32.2 | 0.00 | 0.00 | 0.00 | 67 | 1015.9 |
| 20260902222141 | 32 | 207 | 14.5 | 32.2 | 0.00 | 0.00 | 0.00 | 68 | 1015.9 |
| 20260902221409 | 32 | 232 | 17.7 | 32.2 | 0.00 | 0.00 | 0.00 | 66 | 1016.0 |
| 20260902220909 | 32 | 223 | 16.1 | 25.7 | 0.00 | 0.00 | 0.00 | 66 | 1015.9 |
| 20260902220405 | 32 | 225 | 14.5 | 25.7 | 0.00 | 0.00 | 0.00 | 66 | 1016.0 |
| 20260902220137 | 32 | 230 | 17.7 | 29.0 | 0.00 | 0.00 | 0.00 | 66 | 1016.0 |
| 20260902215406 | 32 | 235 | 16.1 | 29.0 | 0.00 | 0.00 | 0.00 | 64 | 1016.0 |
| 20260902214905 | 33 | 236 | 14.5 | 24.1 | 0.00 | 0.00 | 0.00 | 66 | 1016.0 |
| 20260902214405 | 32 | 236 | 16.1 | 24.1 | 0.00 | 0.00 | 0.00 | 65 | 1016.0 |
| 20260902213905 | 32 | 251 | 16.1 | 27.4 | 0.00 | 0.00 | 0.00 | 65 | 1016.0 |
| 20260902213405 | 32 | 241 | 17.7 | 27.4 | 0.00 | 0.00 | 0.00 | 64 | 1016.0 |
| 20260902212905 | 32 | 240 | 17.7 | 27.4 | 0.00 | 0.00 | 0.00 | 64 | 1016.0 |
| 20260902212406 | 32 | 232 | 14.5 | 27.4 | 0.00 | 0.00 | 0.00 | 64 | 1016.0 |
| 20260902211901 | 33 | 239 | 12.9 | 20.9 | 0.00 | 0.00 | 0.00 | 65 | 1016.0 |
| 20260902211401 | 33 | 221 | 14.5 | 27.4 | 0.00 | 0.00 | 0.00 | 65 | 1016.0 |
| 20260902210901 | 32 | 240 | 14.5 | 27.4 | 0.00 | 0.00 | 0.00 | 65 | 1016.1 |
| 20260902210401 | 33 | 236 | 14.5 | 27.4 | 0.00 | 0.00 | 0.00 | 63 | 1016.0 |
| 20260902205859 | 32 | 211 | 14.5 | 27.4 | 0.00 | 0.00 | 0.00 | 65 | 1016.1 |
| 20260902205359 | 33 | 217 | 16.1 | 25.7 | 0.00 | 0.00 | 0.00 | 63 | 1016.2 |
| 20260902204857 | 32 | 241 | 16.1 | 27.4 | 0.00 | 0.00 | 0.00 | 64 | 1016.2 |
| 20260902204354 | 32 | 225 | 14.5 | 27.4 | 0.00 | 0.00 | 0.00 | 64 | 1016.3 |
| 20260902203854 | 32 | 213 | 17.7 | 27.4 | 0.00 | 0.00 | 0.00 | 64 | 1016.3 |
| 20260902203351 | 32 | 228 | 17.7 | 27.4 | 0.00 | 0.00 | 0.00 | 64 | 1016.3 |
| 20260902202854 | 32 | 219 | 16.1 | 27.4 | 0.00 | 0.00 | 0.00 | 63 | 1016.4 |
| 20260902202850 | 32 | 238 | 16.1 | 27.4 | 0.00 | 0.00 | 0.00 | 63 | 1016.5 |
| 20260902201849 | 32 | 223 | 16.1 | 25.7 | 0.00 | 0.00 | 0.00 | 66 | 1016.6 |
| 20260902201618 | 33 | 236 | 16.1 | 29.0 | 0.00 | 0.00 | 0.00 | 63 | 1016.5 |
| 20260902200848 | 32 | 220 | 16.1 | 29.0 | 0.00 | 0.00 | 0.00 | 62 | 1016.6 |
| 20260902200347 | 32 | 208 | 17.7 | 29.0 | 0.00 | 0.00 | 0.00 | 63 | 1016.6 |
| 20260902195847 | 32 | 266 | 17.7 | 29.0 | 0.00 | 0.00 | 0.00 | 64 | 1016.6 |
| 20260902195618 | 32 | 247 | 16.1 | 30.6 | 0.00 | 0.00 | 0.00 | 63 | 1016.7 |
| 20260902194847 | 32 | 247 | 17.7 | 30.6 | 0.00 | 0.00 | 0.00 | 63 | 1016.7 |
| 20260902194353 | 32 | 248 | 17.7 | 33.8 | 0.00 | 0.00 | 0.00 | 60 | 1016.8 |
| 20260902194348 | 32 | 246 | 19.3 | 30.6 | 0.00 | 0.00 | 0.00 | 62 | 1016.7 |
| 20260902193617 | 33 | 238 | 17.7 | 33.8 | 0.00 | 0.00 | 0.00 | 59 | 1017.0 |
| 20260902192845 | 32 | 234 | 19.3 | 35.4 | 0.00 | 0.00 | 0.00 | 62 | 1016.9 |
| 20260902192343 | 32 | 214 | 19.3 | 35.4 | 0.00 | 0.00 | 0.00 | 64 | 1017.1 |
| 20260902191843 | 33 | 213 | 16.1 | 25.7 | 0.00 | 0.00 | 0.00 | 62 | 1017.1 |
| 20260902191344 | 32 | 215 | 16.1 | 29.0 | 0.00 | 0.00 | 0.00 | 64 | 1017.1 |
| 20260902190844 | 33 | 234 | 14.5 | 29.0 | 0.00 | 0.00 | 0.00 | 62 | 1017.3 |
| 20260902190343 | 32 | 207 | 12.9 | 24.1 | 0.00 | 0.00 | 0.00 | 66 | 1017.2 |
| 20260902185843 | 32 | 241 | 16.1 | 24.1 | 0.00 | 0.00 | 0.00 | 65 | 1017.3 |
| 20260902185337 | 32 | 263 | 17.7 | 24.1 | 0.00 | 0.00 | 0.00 | 64 | 1017.4 |
| 20260902184830 | 32 | 211 | 16.1 | 27.4 | 0.00 | 0.00 | 0.00 | 65 | 1017.5 |
| 20260902184555 | 32 | 227 | 14.5 | 27.4 | 0.00 | 0.00 | 0.00 | 66 | 1017.4 |
| 20260902183818 | 32 | 227 | 14.5 | 25.7 | 0.00 | 0.00 | 0.00 | 67 | 1017.5 |
| 20260902183313 | 32 | 259 | 14.5 | 25.7 | 0.00 | 0.00 | 0.00 | 67 | 1017.5 |
| 20260902182807 | 32 | 221 | 14.5 | 25.7 | 0.00 | 0.00 | 0.00 | 65 | 1017.5 |
| 20260902182301 | 32 | 236 | 16.1 | 25.7 | 0.00 | 0.00 | 0.00 | 66 | 1017.7 |
| 20260902181755 | 32 | 229 | 16.1 | 25.7 | 0.00 | 0.00 | 0.00 | 65 | 1017.7 |
| 20260902181249 | 32 | 200 | 12.9 | 25.7 | 0.00 | 0.00 | 0.00 | 65 | 1017.6 |
| 20260902180743 | 32 | 227 | 9.7 | 24.1 | 0.00 | 0.00 | 0.00 | 67 | 1017.6 |
| 20260902180236 | 32 | 247 | 11.3 | 19.3 | 0.00 | 0.00 | 0.00 | 67 | 1017.6 |
| 20260902175730 | 32 | 264 | 14.5 | 27.4 | 0.00 | 0.00 | 0.00 | 70 | 1017.7 |
| 20260902175224 | 32 | 259 | 14.5 | 27.4 | 0.00 | 0.00 | 0.00 | 67 | 1018.0 |
| 20260902174718 | 32 | 238 | 12.9 | 22.5 | 0.00 | 0.00 | 0.00 | 69 | 1017.8 |
| 20260902174444 | 32 | 274 | 12.9 | 22.5 | 0.00 | 0.00 | 0.00 | 68 | 1017.9 |
| 20260902173707 | 32 | 251 | 11.3 | 24.1 | 0.00 | 0.00 | 0.00 | 69 | 1017.9 |
| 20260902173201 | 32 | 211 | 11.3 | 24.1 | 0.00 | 0.00 | 0.00 | 69 | 1017.9 |
| 20260902172655 | 31 | 254 | 12.9 | 24.1 | 0.00 | 0.00 | 0.00 | 70 | 1018.2 |
| 20260902172149 | 31 | 250 | 12.9 | 24.1 | 0.00 | 0.00 | 0.00 | 68 | 1018.3 |
| 20260902171642 | 31 | 238 | 11.3 | 19.3 | 0.00 | 0.00 | 0.00 | 72 | 1018.2 |
| 20260902171136 | 31 | 247 | 11.3 | 19.3 | 0.00 | 0.00 | 0.00 | 69 | 1018.2 |
| 20260902170630 | 31 | 227 | 9.7 | 19.3 | 0.00 | 0.00 | 0.00 | 69 | 1018.3 |
| 20260902170125 | 31 | 217 | 11.3 | 17.7 | 0.00 | 0.00 | 0.00 | 71 | 1018.2 |
| 20260902165619 | 31 | 265 | 11.3 | 17.7 | 0.00 | 0.00 | 0.00 | 71 | 1018.4 |
| 20260902165113 | 31 | 239 | 11.3 | 20.9 | 0.00 | 0.00 | 0.00 | 70 | 1018.3 |
| 20260902164607 | 31 | 240 | 11.3 | 20.9 | 0.00 | 0.00 | 0.00 | 70 | 1018.4 |
| 20260902164332 | 31 | 224 | 11.3 | 20.9 | 0.00 | 0.00 | 0.00 | 71 | 1018.5 |
| 20260902163554 | 31 | 257 | 11.3 | 25.7 | 0.00 | 0.00 | 0.00 | 72 | 1018.6 |
| 20260902163048 | 31 | 262 | 12.9 | 25.7 | 0.00 | 0.00 | 0.00 | 72 | 1018.7 |
| 20260902162814 | 31 | 273 | 14.5 | 25.7 | 0.00 | 0.00 | 0.00 | 70 | 1018.7 |
| 20260902162041 | 30 | 239 | 14.5 | 22.5 | 0.00 | 0.00 | 0.00 | 71 | 1018.7 |
| 20260902162037 | 31 | 255 | 14.5 | 25.7 | 0.00 | 0.00 | 0.00 | 71 | 1018.7 |
| 20260902161035 | 30 | 298 | 12.9 | 20.9 | 0.00 | 0.00 | 0.00 | 70 | 1018.7 |
| 20260902160535 | 30 | 210 | 11.3 | 19.3 | 0.00 | 0.00 | 0.00 | 73 | 1018.8 |
| 20260902160036 | 30 | 228 | 12.9 | 19.3 | 0.00 | 0.00 | 0.00 | 74 | 1018.8 |
| 20260902155804 | 30 | 262 | 12.9 | 19.3 | 0.00 | 0.00 | 0.00 | 71 | 1018.7 |
| 20260902155033 | 30 | 269 | 11.3 | 17.7 | 0.00 | 0.00 | 0.00 | 74 | 1018.7 |
| 20260902154533 | 30 | 267 | 9.7 | 24.1 | 0.00 | 0.00 | 0.00 | 74 | 1018.6 |
| 20260902154033 | 30 | 259 | 9.7 | 24.1 | 0.00 | 0.00 | 0.00 | 75 | 1018.5 |
| 20260902153531 | 30 | 290 | 12.9 | 24.1 | 0.00 | 0.00 | 0.00 | 72 | 1018.5 |
| 20260902153303 | 30 | 242 | 14.5 | 25.7 | 0.00 | 0.00 | 0.00 | 73 | 1018.7 |
| 20260902152531 | 29 | 239 | 12.9 | 25.7 | 0.00 | 0.00 | 0.00 | 74 | 1018.5 |
| 20260902152031 | 29 | 259 | 14.5 | 25.7 | 0.00 | 0.00 | 0.00 | 75 | 1018.5 |
| 20260902151533 | 29 | 290 | 14.5 | 25.7 | 0.00 | 0.00 | 0.00 | 76 | 1018.4 |
| 20260902151033 | 29 | 266 | 12.9 | 22.5 | 0.00 | 0.00 | 0.00 | 74 | 1018.5 |
| 20260902150804 | 29 | 214 | 9.7 | 17.7 | 0.00 | 0.00 | 0.00 | 75 | 1018.5 |
| 20260902150033 | 29 | 304 | 9.7 | 16.1 | 0.00 | 0.00 | 0.00 | 76 | 1018.3 |
| 20260902145527 | 28 | 229 | 12.9 | 17.7 | 0.00 | 0.00 | 0.00 | 77 | 1018.3 |
| 20260902145027 | 28 | 261 | 11.3 | 22.5 | 0.00 | 0.00 | 0.00 | 76 | 1018.3 |
| 20260902144527 | 28 | 238 | 11.3 | 22.5 | 0.00 | 0.00 | 0.00 | 77 | 1018.3 |
| 20260902144026 | 28 | 235 | 12.9 | 22.5 | 0.00 | 0.00 | 0.00 | 78 | 1018.4 |
| 20260902143527 | 28 | 232 | 12.9 | 22.5 | 0.00 | 0.00 | 0.00 | 77 | 1018.6 |
| 20260902143027 | 28 | 287 | 12.9 | 22.5 | 0.00 | 0.00 | 0.00 | 77 | 1018.4 |
| 20260902142527 | 28 | 231 | 14.5 | 22.5 | 0.00 | 0.00 | 0.00 | 78 | 1018.5 |
| 20260902142027 | 28 | 225 | 12.9 | 20.9 | 0.00 | 0.00 | 0.00 | 79 | 1018.4 |
| 20260902141757 | 28 | 240 | 11.3 | 17.7 | 0.00 | 0.00 | 0.00 | 80 | 1018.7 |
| 20260902141258 | 28 | 244 | 12.9 | 17.7 | 0.00 | 0.00 | 0.00 | 80 | 1018.7 |
| 20260902140525 | 27 | 221 | 11.3 | 19.3 | 0.00 | 0.00 | 0.00 | 79 | 1018.5 |
| 20260902140025 | 27 | 238 | 11.3 | 19.3 | 0.00 | 0.00 | 0.00 | 80 | 1018.4 |
| 20260902135521 | 27 | 217 | 9.7 | 17.7 | 0.00 | 0.00 | 0.00 | 81 | 1018.4 |
| 20260902135020 | 27 | 246 | 11.3 | 19.3 | 0.00 | 0.00 | 0.00 | 81 | 1018.4 |
| 20260902134520 | 27 | 233 | 12.9 | 19.3 | 0.00 | 0.00 | 0.00 | 81 | 1018.6 |
| 20260902134020 | 27 | 261 | 11.3 | 19.3 | 0.00 | 0.00 | 0.00 | 81 | 1018.4 |
| 20260902133521 | 26 | 242 | 9.7 | 16.1 | 0.00 | 0.00 | 0.00 | 82 | 1018.5 |
| 20260902132521 | 26 | 240 | 9.7 | 17.7 | 0.00 | 0.05 | 0.00 | 83 | 1018.3 |
| 20260902132021 | 26 | 227 | 11.3 | 17.7 | 0.00 | 0.05 | 0.00 | 83 | 1018.4 |
| 20260902131521 | 26 | 227 | 9.7 | 16.1 | 0.00 | 0.05 | 0.00 | 83 | 1018.5 |
| 20260902131020 | 26 | 226 | 8.0 | 14.5 | 0.00 | 0.05 | 0.00 | 84 | 1018.3 |
| 20260902130520 | 26 | 223 | 9.7 | 14.5 | 0.00 | 0.05 | 0.00 | 84 | 1018.3 |
| 20260902130021 | 26 | 238 | 8.0 | 14.5 | 0.00 | 0.05 | 0.00 | 84 | 1018.3 |
| 20260902125520 | 26 | 222 | 8.0 | 14.5 | 0.00 | 0.05 | 0.00 | 84 | 1018.5 |
| 20260902125021 | 25 | 234 | 8.0 | 14.5 | 0.00 | 0.05 | 0.00 | 86 | 1018.6 |
| 20260902124521 | 25 | 234 | 8.0 | 14.5 | 0.00 | 0.05 | 0.00 | 86 | 1018.4 |
| 20260902124022 | 25 | 225 | 8.0 | 16.1 | 0.00 | 0.05 | 0.00 | 86 | 1018.4 |
| 20260902123521 | 25 | 229 | 8.0 | 16.1 | 0.00 | 0.05 | 0.00 | 86 | 1018.4 |
| 20260902123021 | 25 | 232 | 6.4 | 14.5 | 0.00 | 0.05 | 0.00 | 87 | 1018.6 |
| 20260902122524 | 25 | 248 | 6.4 | 11.3 | 0.00 | 0.05 | 0.00 | 87 | 1018.6 |
| 20260902122021 | 25 | 227 | 6.4 | 11.3 | 0.00 | 0.05 | 0.00 | 88 | 1018.6 |
| 20260902121521 | 25 | 234 | 4.8 | 11.3 | 0.00 | 0.05 | 0.00 | 88 | 1018.6 |
| 20260902121018 | 24 | 219 | 4.8 | 8.0 | 0.00 | 0.05 | 0.00 | 89 | 1018.4 |
| 20260902120518 | 24 | 213 | 3.2 | 8.0 | 0.00 | 0.05 | 0.00 | 89 | 1018.4 |
| 20260902120018 | 24 | 214 | 3.2 | 8.0 | 0.00 | 0.05 | 0.00 | 89 | 1018.4 |
| 20260902115516 | 24 | 211 | 3.2 | 8.0 | 0.00 | 0.05 | 0.00 | 90 | 1018.6 |
| 20260902115012 | 24 | 204 | 3.2 | 11.3 | 0.00 | 0.05 | 0.00 | 90 | 1018.4 |
| 20260902114512 | 23 | 204 | 3.2 | 11.3 | 0.00 | 0.05 | 0.00 | 90 | 1018.3 |
| 20260902114012 | 23 | 200 | 4.8 | 11.3 | 0.00 | 0.05 | 0.00 | 90 | 1018.3 |
| 20260902113512 | 23 | 197 | 4.8 | 11.3 | 0.00 | 0.05 | 0.00 | 90 | 1018.2 |
| 20260902113013 | 23 | 200 | 4.8 | 6.4 | 0.00 | 0.05 | 0.00 | 90 | 1018.3 |
| 20260902112513 | 23 | 198 | 4.8 | 6.4 | 0.00 | 0.05 | 0.00 | 90 | 1018.0 |
| 20260902112008 | 24 | 207 | 3.2 | 6.4 | 0.00 | 0.05 | 0.00 | 90 | 1018.2 |
| 20260902111508 | 24 | 206 | 3.2 | 6.4 | 0.00 | 0.05 | 0.00 | 90 | 1018.0 |
| 20260902111239 | 24 | 207 | 3.2 | 6.4 | 0.00 | 0.05 | 0.00 | 90 | 1018.0 |
| 20260902110502 | 24 | 200 | 3.2 | 6.4 | 0.00 | 0.05 | 0.00 | 89 | 1018.0 |
| 20260902105956 | 24 | 201 | 4.8 | 6.4 | 0.00 | 0.05 | 0.00 | 90 | 1018.2 |
| 20260902105450 | 24 | 202 | 4.8 | 6.4 | 0.00 | 0.05 | 0.00 | 89 | 1017.9 |
| 20260902105214 | 24 | 205 | 3.2 | 6.4 | 0.00 | 0.05 | 0.00 | 89 | 1017.9 |
| 20260902104437 | 24 | 205 | 3.2 | 6.4 | 0.00 | 0.05 | 0.00 | 89 | 1017.8 |
| 20260902103931 | 24 | 205 | 3.2 | 8.0 | 0.00 | 0.05 | 0.00 | 89 | 1017.9 |
| 20260902103656 | 24 | 205 | 3.2 | 8.0 | 0.00 | 0.05 | 0.00 | 89 | 1017.9 |
| 20260902102920 | 24 | 205 | 3.2 | 8.0 | 0.00 | 0.05 | 0.00 | 89 | 1017.8 |
| 20260902102414 | 25 | 205 | 3.2 | 8.0 | 0.00 | 0.05 | 0.00 | 88 | 1017.8 |
| 20260902101908 | 25 | 225 | 1.6 | 6.4 | 0.00 | 0.05 | 0.00 | 88 | 1017.7 |
| 20260902101632 | 25 | 225 | 1.6 | 6.4 | 0.00 | 0.05 | 0.00 | 88 | 1017.7 |
| 20260902100855 | 25 | 225 | 1.6 | 6.4 | 0.00 | 0.05 | 0.00 | 88 | 1017.7 |
| 20260902100349 | 25 | 229 | 1.6 | 6.4 | 0.00 | 0.05 | 0.00 | 88 | 1017.8 |
| 20260902095843 | 25 | 230 | 3.2 | 6.4 | 0.00 | 0.05 | 0.00 | 88 | 1017.7 |
| 20260902095337 | 25 | 232 | 3.2 | 6.4 | 0.00 | 0.05 | 0.00 | 88 | 1017.6 |
| 20260902094832 | 25 | 224 | 4.8 | 8.0 | 0.00 | 0.05 | 0.00 | 88 | 1017.5 |
| 20260902094325 | 25 | 225 | 4.8 | 8.0 | 0.00 | 0.05 | 0.00 | 88 | 1017.6 |
| 20260902093819 | 25 | 235 | 4.8 | 8.0 | 0.00 | 0.05 | 0.00 | 88 | 1017.6 |
| 20260902093313 | 25 | 235 | 3.2 | 8.0 | 0.00 | 0.05 | 0.00 | 88 | 1017.5 |
| 20260902092807 | 25 | 238 | 3.2 | 8.0 | 0.00 | 0.05 | 0.00 | 88 | 1017.6 |
| 20260902092803 | 25 | 238 | 4.8 | 8.0 | 0.00 | 0.05 | 0.00 | 88 | 1017.6 |
| 20260902091756 | 25 | 219 | 4.8 | 8.0 | 0.00 | 0.05 | 0.00 | 88 | 1017.7 |
| 20260902091250 | 25 | 232 | 4.8 | 8.0 | 0.00 | 0.05 | 0.00 | 88 | 1017.6 |
| 20260902090744 | 25 | 233 | 4.8 | 8.0 | 0.00 | 0.05 | 0.00 | 88 | 1017.7 |
| 20260902090508 | 25 | 223 | 4.8 | 8.0 | 0.00 | 0.05 | 0.00 | 88 | 1017.6 |
| 20260902085732 | 25 | 224 | 3.2 | 6.4 | 0.00 | 0.05 | 0.00 | 88 | 1017.6 |
| 20260902085225 | 25 | 217 | 3.2 | 6.4 | 0.00 | 0.05 | 0.00 | 88 | 1017.7 |
| 20260902084719 | 25 | 214 | 1.6 | 9.7 | 0.00 | 0.05 | 0.00 | 89 | 1017.8 |
| 20260902084214 | 25 | 231 | 3.2 | 9.7 | 0.00 | 0.05 | 0.00 | 89 | 1017.6 |
| 20260902083939 | 25 | 231 | 3.2 | 9.7 | 0.00 | 0.05 | 0.00 | 88 | 1017.5 |
| 20260902083201 | 25 | 207 | 4.8 | 11.3 | 0.00 | 0.05 | 0.00 | 89 | 1017.6 |
| 20260902082927 | 25 | 213 | 4.8 | 11.3 | 0.00 | 0.05 | 0.00 | 89 | 1017.6 |
| 20260902082149 | 25 | 211 | 6.4 | 11.3 | 0.00 | 0.05 | 0.00 | 89 | 1017.5 |
| 20260902081643 | 25 | 213 | 6.4 | 11.3 | 0.00 | 0.05 | 0.00 | 89 | 1017.7 |
| 20260902081138 | 25 | 209 | 4.8 | 8.0 | 0.00 | 0.05 | 0.00 | 89 | 1017.5 |
| 20260902080632 | 25 | 213 | 4.8 | 9.7 | 0.00 | 0.05 | 0.00 | 89 | 1017.4 |
| 20260902080126 | 25 | 213 | 4.8 | 9.7 | 0.00 | 0.05 | 0.00 | 89 | 1017.4 |
| 20260902075626 | 25 | 213 | 4.8 | 9.7 | 0.00 | 0.05 | 0.00 | 89 | 1017.4 |
| 20260902075124 | 25 | 219 | 3.2 | 9.7 | 0.00 | 0.05 | 0.00 | 89 | 1017.6 |
| 20260902074622 | 25 | 213 | 4.8 | 8.0 | 0.00 | 0.05 | 0.00 | 89 | 1017.5 |
| 20260902074122 | 25 | 211 | 4.8 | 8.0 | 0.00 | 0.05 | 0.00 | 89 | 1017.4 |
| 20260902073622 | 25 | 211 | 4.8 | 8.0 | 0.00 | 0.05 | 0.00 | 89 | 1017.5 |
| 20260902073120 | 25 | 213 | 3.2 | 8.0 | 0.00 | 0.05 | 0.00 | 89 | 1017.4 |
| 20260902072618 | 25 | 208 | 3.2 | 6.4 | 0.00 | 0.05 | 0.00 | 89 | 1017.3 |
| 20260902072122 | 25 | 204 | 6.4 | 9.7 | 0.00 | 0.05 | 0.00 | 88 | 1017.2 |
| 20260902072118 | 25 | 207 | 4.8 | 9.7 | 0.00 | 0.05 | 0.00 | 89 | 1017.5 |
| 20260902071118 | 25 | 212 | 4.8 | 9.7 | 0.00 | 0.05 | 0.00 | 88 | 1017.2 |
| 20260902070618 | 26 | 217 | 6.4 | 9.7 | 0.00 | 0.05 | 0.00 | 88 | 1017.3 |
| 20260902070116 | 26 | 208 | 4.8 | 9.7 | 0.00 | 0.05 | 0.00 | 88 | 1017.3 |
| 20260902065850 | 26 | 208 | 4.8 | 9.7 | 0.00 | 0.05 | 0.00 | 88 | 1017.5 |
| 20260902065615 | 26 | 208 | 6.4 | 9.7 | 0.00 | 0.05 | 0.00 | 88 | 1017.3 |
| 20260902064612 | 26 | 213 | 4.8 | 9.7 | 0.00 | 0.05 | 0.00 | 88 | 1017.3 |
| 20260902064114 | 26 | 217 | 4.8 | 9.7 | 0.00 | 0.05 | 0.00 | 88 | 1017.4 |
| 20260902063845 | 26 | 223 | 6.4 | 9.7 | 0.00 | 0.05 | 0.00 | 87 | 1017.4 |
| 20260902063106 | 26 | 213 | 6.4 | 9.7 | 0.00 | 0.05 | 0.00 | 87 | 1017.5 |
| 20260902062606 | 26 | 229 | 6.4 | 9.7 | 0.00 | 0.05 | 0.00 | 87 | 1017.5 |
| 20260902062106 | 26 | 218 | 6.4 | 9.7 | 0.00 | 0.05 | 0.00 | 87 | 1017.5 |
| 20260902061606 | 26 | 215 | 4.8 | 9.7 | 0.00 | 0.05 | 0.00 | 87 | 1017.6 |
| 20260902061106 | 26 | 212 | 4.8 | 9.7 | 0.00 | 0.05 | 0.00 | 87 | 1017.6 |
| 20260902060606 | 26 | 221 | 4.8 | 9.7 | 0.00 | 0.05 | 0.00 | 87 | 1017.5 |
| 20260902060105 | 26 | 221 | 6.4 | 9.7 | 0.00 | 0.05 | 0.00 | 87 | 1017.7 |
| 20260902055605 | 26 | 227 | 6.4 | 9.7 | 0.00 | 0.05 | 0.00 | 87 | 1017.6 |
| 20260902055105 | 26 | 219 | 6.4 | 11.3 | 0.00 | 0.05 | 0.00 | 87 | 1017.6 |
| 20260902054837 | 26 | 229 | 4.8 | 11.3 | 0.00 | 0.05 | 0.00 | 87 | 1017.6 |
| 20260902054106 | 26 | 236 | 4.8 | 11.3 | 0.00 | 0.05 | 0.00 | 87 | 1017.5 |
| 20260902053606 | 26 | 239 | 6.4 | 11.3 | 0.00 | 0.05 | 0.00 | 87 | 1017.6 |
| 20260902053102 | 26 | 240 | 6.4 | 11.3 | 0.00 | 0.05 | 0.00 | 87 | 1017.5 |
| 20260902052601 | 26 | 242 | 6.4 | 11.3 | 0.00 | 0.05 | 0.00 | 87 | 1017.4 |
| 20260902052102 | 26 | 227 | 6.4 | 12.9 | 0.00 | 0.05 | 0.00 | 87 | 1017.4 |
| 20260902051601 | 26 | 238 | 8.0 | 12.9 | 0.00 | 0.05 | 0.00 | 87 | 1017.4 |
| 20260902051101 | 26 | 233 | 8.0 | 14.5 | 0.00 | 0.05 | 0.00 | 87 | 1017.5 |
| 20260902050602 | 26 | 228 | 8.0 | 17.7 | 0.00 | 0.05 | 0.00 | 86 | 1017.4 |
| 20260902045601 | 26 | 238 | 8.0 | 17.7 | 0.00 | 0.05 | 0.00 | 86 | 1017.3 |
| 20260902045334 | 26 | 233 | 9.7 | 17.7 | 0.00 | 0.05 | 0.00 | 86 | 1017.3 |
| 20260902044601 | 26 | 255 | 9.7 | 14.5 | 0.00 | 0.05 | 0.00 | 86 | 1017.2 |
| 20260902044106 | 27 | 228 | 8.0 | 12.9 | 0.00 | 0.05 | 0.00 | 85 | 1017.1 |
| 20260902044102 | 27 | 235 | 8.0 | 14.5 | 0.00 | 0.05 | 0.00 | 86 | 1017.2 |
| 20260902043709 | 27 | 223 | 8.0 | 14.5 | 0.00 | 0.05 | 0.00 | 85 | 1017.0 |
| 20260902042601 | 27 | 216 | 8.0 | 14.5 | 0.00 | 0.05 | 0.00 | 85 | 1017.1 |
| 20260902042102 | 27 | 205 | 8.0 | 16.1 | 0.00 | 0.05 | 0.00 | 85 | 1017.0 |
| 20260902041832 | 27 | 221 | 8.0 | 16.1 | 0.00 | 0.05 | 0.00 | 85 | 1017.1 |
| 20260902041101 | 27 | 225 | 8.0 | 12.9 | 0.00 | 0.05 | 0.00 | 85 | 1017.1 |
| 20260902040833 | 27 | 219 | 8.0 | 14.5 | 0.00 | 0.05 | 0.00 | 84 | 1017.1 |
| 20260902040055 | 27 | 226 | 8.0 | 14.5 | 0.00 | 0.05 | 0.00 | 84 | 1017.1 |
| 20260902035548 | 27 | 207 | 8.0 | 16.1 | 0.00 | 0.05 | 0.05 | 84 | 1017.1 |
| 20260902035041 | 27 | 231 | 9.7 | 16.1 | 0.00 | 0.05 | 0.05 | 83 | 1017.3 |
| 20260902034812 | 27 | 226 | 9.7 | 17.7 | 0.00 | 0.05 | 0.05 | 83 | 1017.1 |
| 20260902034040 | 27 | 217 | 9.7 | 17.7 | 0.00 | 0.05 | 0.05 | 83 | 1017.1 |
| 20260902033541 | 27 | 218 | 8.0 | 14.5 | 0.00 | 0.05 | 0.05 | 83 | 1017.1 |
| 20260902033038 | 27 | 217 | 6.4 | 16.1 | 0.00 | 0.05 | 0.05 | 83 | 1017.1 |
| 20260902032536 | 27 | 229 | 6.4 | 16.1 | 0.00 | 0.05 | 0.05 | 83 | 1017.4 |
| 20260902032034 | 27 | 229 | 8.0 | 16.1 | 0.00 | 0.05 | 0.05 | 83 | 1017.2 |
| 20260902031805 | 27 | 199 | 9.7 | 17.7 | 0.00 | 0.05 | 0.05 | 82 | 1017.2 |
| 20260902031034 | 28 | 221 | 9.7 | 17.7 | 0.00 | 0.05 | 0.05 | 82 | 1017.3 |
| 20260902030534 | 28 | 223 | 11.3 | 17.7 | 0.00 | 0.05 | 0.05 | 82 | 1017.2 |
| 20260902030033 | 28 | 205 | 11.3 | 17.7 | 0.00 | 0.05 | 0.05 | 82 | 1017.3 |
| 20260902025530 | 28 | 232 | 11.3 | 19.3 | 0.00 | 0.05 | 0.05 | 82 | 1017.1 |
| 20260902025030 | 28 | 217 | 11.3 | 19.3 | 0.00 | 0.05 | 0.05 | 82 | 1017.1 |
| 20260902024531 | 28 | 229 | 11.3 | 17.7 | 0.00 | 0.05 | 0.05 | 82 | 1017.1 |
| 20260902024031 | 28 | 217 | 9.7 | 17.7 | 0.00 | 0.05 | 0.05 | 82 | 1017.3 |
| 20260902023529 | 28 | 221 | 8.0 | 16.1 | 0.00 | 0.05 | 0.05 | 82 | 1017.3 |
| 20260902023029 | 28 | 237 | 8.0 | 16.1 | 0.00 | 0.05 | 0.05 | 83 | 1017.3 |
| 20260902022531 | 28 | 215 | 9.7 | 16.1 | 0.00 | 0.05 | 0.05 | 83 | 1017.1 |
| 20260902022030 | 28 | 217 | 9.7 | 16.1 | 0.00 | 0.05 | 0.05 | 82 | 1017.1 |
| 20260902021754 | 28 | 217 | 6.4 | 12.9 | 0.00 | 0.05 | 0.05 | 82 | 1017.3 |
| 20260902021018 | 28 | 223 | 6.4 | 11.3 | 0.00 | 0.05 | 0.05 | 82 | 1017.3 |
| 20260902020515 | 28 | 217 | 6.4 | 9.7 | 0.00 | 0.05 | 0.05 | 83 | 1017.3 |
| 20260902020508 | 28 | 208 | 6.4 | 9.7 | 0.00 | 0.05 | 0.05 | 82 | 1017.1 |
| 20260902015500 | 28 | 204 | 6.4 | 9.7 | 0.00 | 0.05 | 0.05 | 82 | 1017.1 |
| 20260902014954 | 28 | 205 | 6.4 | 9.7 | 0.00 | 0.05 | 0.05 | 82 | 1017.1 |
| 20260902014448 | 28 | 201 | 6.4 | 11.3 | 0.00 | 0.05 | 0.05 | 81 | 1017.0 |
| 20260902013945 | 28 | 209 | 6.4 | 11.3 | 0.00 | 0.05 | 0.05 | 81 | 1017.1 |
| 20260902013938 | 28 | 213 | 6.4 | 9.7 | 0.00 | 0.05 | 0.05 | 81 | 1017.0 |
| 20260902012930 | 28 | 211 | 6.4 | 9.7 | 0.00 | 0.05 | 0.05 | 82 | 1017.1 |
| 20260902012424 | 28 | 209 | 4.8 | 9.7 | 0.00 | 0.05 | 0.05 | 82 | 1017.1 |
| 20260902012149 | 28 | 202 | 4.8 | 8.0 | 0.00 | 0.05 | 0.05 | 83 | 1017.1 |